DW7027 Weather Reports


Display with metric or nautical units.
time (UTC)temp
F
wind
direction
speed
MPH
gust
MPH
rain 1hr
in
rain 24hr
in
rain mn
in
humidity
%
barometer
mb
20260831163204 83 280 7.0 12.0 0.00 0.00 0.00 41 1018.8
20260831162705 83 287 8.0 14.0 0.00 0.00 0.00 41 1018.8
20260831162206 83 281 9.0 15.0 0.00 0.00 0.00 42 1018.8
20260831161705 83 287 8.0 12.0 0.00 0.00 0.00 41 1018.7
20260831161205 83 268 5.0 9.0 0.00 0.00 0.00 42 1018.6
20260831160204 83 262 6.0 13.0 0.00 0.00 0.00 43 1018.5
20260831155705 83 269 6.0 13.0 0.00 0.00 0.00 41 1018.7
20260831155204 83 277 7.0 13.0 0.00 0.00 0.00 43 1018.7
20260831154704 83 270 7.0 12.0 0.00 0.00 0.00 44 1018.8
20260831154205 83 273 5.0 10.0 0.00 0.00 0.00 46 1018.8
20260831153705 83 268 5.0 10.0 0.00 0.00 0.00 45 1018.5
20260831153204 83 249 5.0 7.0 0.00 0.00 0.00 49 1018.9
20260831151705 83 259 4.0 7.0 0.00 0.00 0.00 49 1018.8
20260831150705 83 242 6.0 10.0 0.00 0.00 0.00 51 1019.0
20260831150204 82 259 4.0 8.0 0.00 0.00 0.00 51 1019.0
20260831145704 82 263 6.0 12.0 0.00 0.00 0.00 51 1019.2
20260831145205 81 239 6.0 12.0 0.00 0.00 0.00 53 1019.1
20260831144704 81 225 6.0 9.0 0.00 0.00 0.00 54 1019.1
20260831143705 80 207 6.0 8.0 0.00 0.00 0.00 55 1019.3
20260831142704 79 222 5.0 9.0 0.00 0.00 0.00 56 1019.5
20260831142204 79 275 5.0 10.0 0.00 0.00 0.00 56 1019.3
20260831141704 79 222 6.0 12.0 0.00 0.00 0.00 56 1019.3
20260831141205 79 239 5.0 10.0 0.00 0.00 0.00 57 1019.3
20260831140705 78 249 5.0 10.0 0.00 0.00 0.00 58 1019.5
20260831135705 78 252 5.0 10.0 0.00 0.00 0.00 58 1019.5
20260831135204 78 246 6.0 9.0 0.00 0.00 0.00 58 1019.6
20260831134705 78 238 4.0 7.0 0.00 0.00 0.00 58 1019.8
20260831134204 78 264 5.0 13.0 0.00 0.00 0.00 58 1019.8
20260831133204 78 273 3.0 9.0 0.00 0.00 0.00 58 1019.7
20260831132704 78 238 6.0 10.0 0.00 0.00 0.00 57 1019.8
20260831132205 78 255 6.0 12.0 0.00 0.00 0.00 57 1019.7
20260831131704 78 265 7.0 12.0 0.00 0.00 0.00 57 1019.8
20260831131204 79 233 7.0 12.0 0.00 0.00 0.00 56 1019.9
20260831130706 79 254 5.0 10.0 0.00 0.00 0.00 57 1019.7
20260831125705 80 238 7.0 13.0 0.00 0.00 0.00 54 1020.2
20260831125205 80 277 7.0 13.0 0.00 0.00 0.00 55 1020.1
20260831124204 80 270 9.0 14.0 0.00 0.00 0.00 55 1020.2
20260831122204 81 290 9.0 17.0 0.00 0.00 0.00 52 1020.1
20260831120704 83 292 9.0 18.0 0.00 0.00 0.00 51 1020.0
20260831120206 83 287 10.0 17.0 0.00 0.00 0.00 51 1019.9
20260831115704 82 292 12.0 17.0 0.00 0.00 0.00 53 1019.9
20260831115205 81 285 12.0 21.0 0.00 0.00 0.00 52 1019.8
20260831114704 81 283 9.0 16.0 0.00 0.00 0.00 52 1019.9
20260831114204 81 287 10.0 18.0 0.00 0.00 0.00 51 1019.7
20260831112704 82 267 6.0 13.0 0.00 0.00 0.00 50 1019.9
20260831112204 82 290 7.0 20.0 0.00 0.00 0.00 49 1019.7
20260831111205 83 287 7.0 13.0 0.00 0.00 0.00 50 1019.9
20260831110204 82 302 8.0 15.0 0.00 0.00 0.00 50 1019.9
20260831105705 82 292 10.0 15.0 0.00 0.00 0.00 50 1019.8
20260831105206 82 283 6.0 15.0 0.00 0.00 0.00 50 1019.8
20260831104704 82 308 9.0 15.0 0.00 0.00 0.00 51 1019.9
20260831103704 81 291 9.0 18.0 0.00 0.00 0.00 53 1019.9
20260831103204 81 292 12.0 17.0 0.00 0.00 0.00 55 1020.0
20260831101705 78 287 6.0 13.0 0.00 0.00 0.00 58 1019.8
20260831100205 77 232 6.0 10.0 0.00 0.00 0.00 58 1019.9
20260831095204 77 238 6.0 12.0 0.00 0.00 0.00 57 1019.9
20260831094204 78 248 6.0 10.0 0.00 0.00 0.00 57 1019.8
20260831093705 78 259 5.0 8.0 0.00 0.00 0.00 58 1019.7
20260831093204 77 268 3.0 8.0 0.00 0.00 0.00 60 1019.6
20260831092704 77 295 4.0 8.0 0.00 0.00 0.00 62 1019.6
20260831091704 74 270 6.0 14.0 0.00 0.00 0.00 63 1019.9
20260831091205 73 246 6.0 9.0 0.00 0.00 0.00 65 1020.2
20260831090205 72 221 3.0 6.0 0.00 0.00 0.00 67 1019.7
20260831084704 72 251 3.0 6.0 0.00 0.00 0.00 67 1019.8
20260831084204 72 190 3.0 7.0 0.00 0.00 0.00 66 1019.5
20260831083704 72 283 5.0 7.0 0.00 0.00 0.00 66 1019.7
20260831083206 72 269 5.0 8.0 0.00 0.00 0.00 66 1019.7
20260831082204 72 104 2.0 3.0 0.00 0.00 0.00 66 1019.1
20260831081704 72 182 2.0 5.0 0.00 0.00 0.00 66 1019.1
20260831080704 72 213 3.0 6.0 0.00 0.00 0.00 66 1019.3
20260831080204 72 253 3.0 6.0 0.00 0.00 0.00 65 1019.4
20260831075704 72 255 2.0 5.0 0.00 0.00 0.00 65 1019.3
20260831075204 72 245 5.0 6.0 0.00 0.00 0.00 65 1019.3
20260831074704 72 253 3.0 6.0 0.00 0.00 0.00 65 1019.2
20260831074204 72 244 4.0 5.0 0.00 0.00 0.00 65 1019.2
20260831073704 72 232 4.0 6.0 0.00 0.00 0.00 65 1019.2
20260831073205 72 216 3.0 6.0 0.00 0.00 0.00 65 1019.1
20260831072705 72 234 3.0 6.0 0.00 0.00 0.00 65 1018.9
20260831072205 72 185 3.0 5.0 0.00 0.00 0.00 65 1018.8
20260831070704 72 190 2.0 7.0 0.00 0.00 0.00 64 1018.8
20260831070206 73 202 3.0 5.0 0.00 0.00 0.00 64 1018.9
20260831065704 72 196 3.0 5.0 0.00 0.00 0.00 65 1018.7
20260831065205 72 173 2.0 5.0 0.00 0.00 0.00 66 1018.6
20260831064705 72 148 3.0 6.0 0.00 0.00 0.00 66 1018.6
20260831064204 72 97 3.0 6.0 0.00 0.00 0.00 68 1018.7
20260831063704 72 106 4.0 7.0 0.00 0.00 0.00 69 1018.8
20260831063205 71 117 2.0 5.0 0.00 0.00 0.00 73 1018.7
20260831062204 69 124 2.0 3.0 0.00 0.00 0.00 78 1018.8
20260831061704 69 11 2.0 3.0 0.00 0.00 0.00 81 1018.9
20260831061204 67 68 2.0 3.0 0.00 0.00 0.00 83 1019.0
20260831060704 66 358 1.0 2.0 0.00 0.00 0.00 84 1018.9
20260831060206 65 43 1.0 2.0 0.00 0.00 0.00 85 1018.8
20260831055704 65 14 1.0 2.0 0.00 0.00 0.00 86 1018.8
20260831055204 64 10 1.0 3.0 0.00 0.00 0.00 86 1018.7
20260831054204 63 57 0.0 2.0 0.00 0.00 0.00 88 1018.7
20260831052704 62 355 2.0 3.0 0.00 0.00 0.00 89 1018.7
20260831051205 60 325 2.0 6.0 0.00 0.00 0.00 89 1019.0
20260831050704 60 319 3.0 7.0 0.00 0.00 0.00 89 1019.0
20260831050204 60 287 5.0 8.0 0.00 0.00 0.00 89 1018.8
20260831045706 60 285 3.0 5.0 0.00 0.00 0.00 89 1018.8
20260831045204 59 294 1.0 2.0 0.00 0.00 0.00 89 1018.5
20260831044705 59 357 1.0 2.0 0.00 0.00 0.00 88 1018.8
20260831044205 59 30 1.0 2.0 0.00 0.00 0.00 88 1018.7
20260831043205 59 278 2.0 3.0 0.00 0.00 0.00 88 1018.9
20260831042204 59 289 1.0 2.0 0.00 0.00 0.00 88 1018.9
20260831041705 58 279 2.0 2.0 0.00 0.00 0.00 88 1018.8
20260831041204 58 242 1.0 2.0 0.00 0.00 0.00 88 1018.8
20260831040704 58 303 1.0 2.0 0.00 0.00 0.00 88 1018.9
20260831040204 58 335 1.0 3.0 0.00 0.00 0.00 87 1018.6
20260831035204 58 271 1.0 2.0 0.00 0.00 0.00 87 1018.5
20260831034204 58 330 3.0 6.0 0.00 0.00 0.00 87 1018.4
20260831033204 58 302 2.0 3.0 0.00 0.00 0.00 87 1018.4
20260831032704 58 275 2.0 2.0 0.00 0.00 0.00 86 1018.2
20260831032204 58 228 1.0 3.0 0.00 0.00 0.00 86 1018.4
20260831031204 58 212 1.0 2.0 0.00 0.00 0.00 86 1018.3
20260831030204 59 306 1.0 2.0 0.00 0.00 0.00 86 1018.5
20260831025704 59 268 1.0 2.0 0.00 0.00 0.00 86 1018.6
20260831024704 59 269 2.0 2.0 0.00 0.00 0.00 85 1018.7
20260831023204 59 301 1.0 2.0 0.00 0.00 0.00 85 1018.5
20260831022704 59 298 1.0 2.0 0.00 0.00 0.00 85 1018.6
20260831022204 59 356 0.0 2.0 0.00 0.00 0.00 85 1018.7
20260831021704 59 349 0.0 3.0 0.00 0.00 0.00 85 1018.6
20260831021204 60 310 1.0 3.0 0.00 0.00 0.00 84 1018.6
20260831020705 60 290 2.0 3.0 0.00 0.00 0.00 84 1018.6
20260831020204 60 266 1.0 2.0 0.00 0.00 0.00 84 1018.6
20260831015704 60 338 1.0 2.0 0.00 0.00 0.00 84 1018.6
20260831015204 60 313 2.0 3.0 0.00 0.00 0.00 84 1018.6
20260831014704 60 4 1.0 2.0 0.00 0.00 0.00 84 1018.8
20260831014204 60 354 1.0 2.0 0.00 0.00 0.00 83 1018.8
20260831013705 60 275 1.0 3.0 0.00 0.00 0.00 83 1018.8
20260831013204 60 315 1.0 3.0 0.00 0.00 0.00 83 1018.8
20260831012204 60 355 2.0 2.0 0.00 0.00 0.00 83 1018.8
20260831010704 61 270 0.0 2.0 0.00 0.00 0.00 82 1018.9
20260831010204 61 288 1.0 2.0 0.00 0.00 0.00 82 1018.9
20260831005704 61 298 1.0 3.0 0.00 0.00 0.00 82 1018.9
20260831005204 61 300 1.0 2.0 0.00 0.00 0.00 82 1019.0
20260831004704 61 339 1.0 2.0 0.00 0.00 0.00 82 1018.8
20260831004206 61 329 1.0 2.0 0.00 0.00 0.00 82 1019.1
20260831003704 61 355 2.0 3.0 0.00 0.00 0.00 81 1019.2
20260831002704 62 303 1.0 3.0 0.00 0.00 0.00 80 1019.2
20260831002205 62 301 2.0 3.0 0.00 0.00 0.00 79 1019.2
20260831001704 62 253 1.0 2.0 0.00 0.00 0.00 79 1019.2
20260831001204 62 284 1.0 3.0 0.00 0.00 0.00 80 1019.2
20260831000704 62 286 2.0 3.0 0.00 0.00 0.00 80 1019.1
20260830235706 63 267 1.0 3.0 0.00 0.00 0.00 80 1019.3
20260830235204 63 264 1.0 2.0 0.00 0.00 0.00 80 1019.3
20260830234704 63 272 1.0 2.0 0.00 0.00 0.00 79 1019.2
20260830234204 63 336 1.0 2.0 0.00 0.00 0.00 79 1019.1
20260830233704 63 338 1.0 2.0 0.00 0.00 0.00 78 1019.3
20260830233204 63 353 1.0 2.0 0.00 0.00 0.00 78 1019.2
20260830232704 63 316 0.0 2.0 0.00 0.00 0.00 77 1019.2
20260830232204 63 344 1.0 2.0 0.00 0.00 0.00 76 1019.4
20260830231705 64 319 1.0 3.0 0.00 0.00 0.00 77 1019.5
20260830231204 64 286 2.0 3.0 0.00 0.00 0.00 77 1019.6
20260830230704 64 275 2.0 2.0 0.00 0.00 0.00 76 1019.4
20260830230204 64 285 1.0 2.0 0.00 0.00 0.00 77 1019.5
20260830225204 64 259 1.0 2.0 0.00 0.00 0.00 76 1019.7
20260830223704 65 343 1.0 2.0 0.00 0.00 0.00 73 1019.6
20260830223204 65 302 1.0 2.0 0.00 0.00 0.00 73 1019.7
20260830222704 65 290 1.0 2.0 0.00 0.00 0.00 73 1019.4
20260830222206 65 290 0.0 1.0 0.00 0.00 0.00 73 1019.4
20260830221704 65 265 1.0 3.0 0.00 0.00 0.00 73 1019.5
20260830220704 65 137 1.0 3.0 0.00 0.00 0.00 73 1019.4
20260830220204 66 220 1.0 3.0 0.00 0.00 0.00 72 1019.4
20260830215704 66 258 1.0 2.0 0.00 0.00 0.00 72 1019.5
20260830215206 66 265 2.0 2.0 0.00 0.00 0.00 72 1019.4
20260830214704 66 305 0.0 2.0 0.00 0.00 0.00 72 1019.5
20260830214204 67 287 1.0 2.0 0.00 0.00 0.00 72 1019.4
20260830213705 67 318 1.0 2.0 0.00 0.00 0.00 72 1019.4
20260830212704 67 126 0.0 2.0 0.00 0.00 0.00 71 1019.5
20260830212204 67 149 0.0 1.0 0.00 0.00 0.00 70 1019.4
20260830210704 68 323 1.0 2.0 0.00 0.00 0.00 69 1019.1
20260830210204 68 336 1.0 2.0 0.00 0.00 0.00 69 1019.2
20260830205203 69 306 0.0 1.0 0.00 0.00 0.00 68 1019.2
20260830204204 69 337 0.0 1.0 0.00 0.00 0.00 66 1019.6
20260830203704 69 255 1.0 2.0 0.00 0.00 0.00 66 1019.5
20260830203204 69 231 0.0 2.0 0.00 0.00 0.00 66 1019.4
20260830202705 69 219 0.0 1.0 0.00 0.00 0.00 65 1019.4
20260830201704 70 301 1.0 2.0 0.00 0.00 0.00 64 1019.6
20260830201204 70 219 0.0 1.0 0.00 0.00 0.00 64 1019.3
20260830200704 70 240 0.0 2.0 0.00 0.00 0.00 63 1019.5
20260830195704 70 208 2.0 2.0 0.00 0.00 0.00 63 1019.5
20260830195204 70 260 0.0 2.0 0.00 0.00 0.00 63 1019.6
20260830194704 70 310 3.0 6.0 0.00 0.00 0.00 63 1019.4
20260830194204 70 305 3.0 7.0 0.00 0.00 0.00 64 1019.5
20260830193704 70 334 7.0 12.0 0.00 0.00 0.00 64 1019.5
20260830193204 70 326 2.0 3.0 0.00 0.00 0.00 64 1019.4
20260830192704 70 348 2.0 3.0 0.00 0.00 0.00 63 1019.3
20260830192203 71 313 2.0 2.0 0.00 0.00 0.00 62 1019.2
20260830190706 72 224 0.0 1.0 0.00 0.00 0.00 60 1019.0
20260830190206 72 325 0.0 1.0 0.00 0.00 0.00 59 1018.9
20260830185706 72 333 0.0 1.0 0.00 0.00 0.00 58 1019.1
20260830185206 73 224 0.0 0.0 0.00 0.00 0.00 58 1019.2
20260830184706 73 265 0.0 1.0 0.00 0.00 0.00 57 1019.1
20260830184205 73 242 0.0 1.0 0.00 0.00 0.00 57 1019.1
20260830183706 74 269 0.0 1.0 0.00 0.00 0.00 56 1019.0
20260830183206 74 255 0.0 1.0 0.00 0.00 0.00 55 1018.8
20260830182705 75 267 0.0 1.0 0.00 0.00 0.00 54 1018.8
20260830182207 75 257 0.0 1.0 0.00 0.00 0.00 54 1018.9
20260830181706 76 271 1.0 1.0 0.00 0.00 0.00 54 1019.0
20260830181206 76 271 0.0 1.0 0.00 0.00 0.00 53 1018.8
20260830180705 77 315 0.0 1.0 0.00 0.00 0.00 51 1018.6
20260830180206 78 28 0.0 1.0 0.00 0.00 0.00 49 1018.7
20260830175206 79 269 1.0 2.0 0.00 0.00 0.00 48 1018.5
20260830174706 79 263 1.0 2.0 0.00 0.00 0.00 47 1018.7
20260830174206 80 256 1.0 2.0 0.00 0.00 0.00 46 1018.6
20260830173206 81 270 2.0 3.0 0.00 0.00 0.00 45 1018.5
20260830172705 82 251 3.0 5.0 0.00 0.00 0.00 44 1018.6
20260830172205 82 248 3.0 5.0 0.00 0.00 0.00 43 1018.5
20260830171706 83 263 2.0 5.0 0.00 0.00 0.00 43 1018.3
20260830171206 83 251 2.0 5.0 0.00 0.00 0.00 42 1018.4
20260830170206 84 244 2.0 5.0 0.00 0.00 0.00 41 1018.3
20260830165705 84 247 3.0 8.0 0.00 0.00 0.00 41 1018.3
20260830164706 85 252 5.0 9.0 0.00 0.00 0.00 40 1018.5
20260830164206 85 249 5.0 6.0 0.00 0.00 0.00 40 1018.4
20260830163705 86 252 5.0 9.0 0.00 0.00 0.00 39 1018.5